SCP
-0 -0 -0 -0 0 -0 -0 0 0 -0 -0 -0 -0 -0 -0 0 -0 -0 -0 -0 -0 -0 -0 -0 -0 -0 0 0 -0 -0 1 0 -0 -0 0 0 0 1 0 1 1 1 0
-0 -0 0 0 -0 -0 -0 -0 0 -0 -0 -0 0 0 0 0 -0 -0 -0 -0 -0 -0 -0 -0 -0 -0 0 1 0 1 1 1 0 0 0 0 0 0 0 1 1 1 0
-0 -0 -0 -0 -0 -0 -0 -0 -0 0 -0 -0 0 0 0 0 -0 0 0 -0 -0 -0 -0 -0 -0 -0 0 0 1 1 1 1 0 1 1 0 0 0 1 1 2 1 0
-0 -0 -0 -0 -0 0 -0 -0 0 0 0 -0 0 -0 -0 -0 -0 -0 0 -0 -0 -0 -0 -0 -0 0 0 0 1 1 1 1 1 1 3 2 2 1 1 0 1 1 0
-0 -0 -0 -0 -0 0 -0 -0 -0 0 0 -0 0 -0 0 0 0 -0 -0 0 -0 0 0 -0 0 0 0 1 1 1 1 1 1 1 1 1 2 2 2 1 1 1 0
-0 -0 -0 -0 -0 -0 -0 0 0 0 0 -0 -0 -0 0 0 0 0 -0 0 0 0 -0 0 0 0 0 0 1 1 1 1 1 1 1 2 2 2 3 1 1 1 1
-0 -0 -0 -0 -0 0 0 0 0 0 0 -0 0 -0 -0 -0 0 0 0 -0 0 0 0 -0 0 0 0 0 1 1 1 1 1 2 2 2 2 3 2 1 1 1 2
-0 -0 -0 -0 -0 -0 0 0 -0 -0 0 0 0 0 -0 0 0 0 0 0 -0 -0 0 -0 -0 0 0 0 0 1 1 1 1 2 2 3 1 1 1 1 1 1 1
-0 -0 -0 -0 -0 -0 -0 -0 -0 0 -0 -0 0 -0 0 -0 0 0 0 0 -0 0 -0 -0 0 0 0 0 0 1 1 1 2 2 2 1 0 1 1 1 1 1 0
-0 -0 -0 -0 -0 -0 0 -0 -0 -0 -0 -0 -0 0 -0 -0 0 0 0 -0 0 0 -0 0 0 0 0 0 1 1 1 2 2 1 1 0 0 0 1 1 0 0 0
0 -0 -0 -0 -0 -0 -0 -0 -0 -0 -0 -0 -0 0 0 0 0 0 0 -0 0 -0 -0 -0 0 0 0 0 1 1 1 2 1 1 0 0 0 0 0 0 0 0 0
0 0 -0 -0 -0 -0 -0 -0 -0 -0 -0 0 0 -0 0 0 0 0 0 0 0 0 -0 0 0 0 1 1 1 1 2 2 1 1 1 1 0 0 0 0 0 0 0
0 0 0 -0 -0 -0 -0 -0 -0 0 0 0 0 0 0 0 0 0 0 0 0 -0 -0 0 0 1 1 1 1 2 1 2 1 1 1 0 0 0 0 0 0 0 0
0 0 0 0 0 0 -0 -0 0 0 0 0 -0 -0 -0 0 0 0 0 0 0 -0 0 0 0 1 1 1 2 2 1 1 1 1 1 0 0 0 0 0 0 0 0
0 0 0 0 0 0 0 0 0 0 0 0 0 0 0 0 0 0 0 0 -0 -0 0 0 0 1 1 2 2 1 1 1 1 0 0 0 0 0 0 0 0 0 0
0 0 0 0 0 0 0 0 0 0 0 0 0 0 0 0 0 0 0 0 -0 -0 0 0 0 1 1 1 1 1 1 0 0 0 0 0 0 0 0 0 0 0 0
1 0 0 0 0 0 0 0 0 0 0 0 0 0 0 0 -0 0 -0 -0 -0 -0 -0 0 0 1 2 0 0 0 1 0 0 0 0 0 0 0 0 0 0 0 0
1 1 0 0 -0 -0 0 0 0 0 0 0 0 0 0 -0 -0 -0 -0 -0 -0 -0 -0 0 0 1 1 0 0 0 0 0 0 0 0 0 0 0 0 0 0 0 0
1 1 0 0 -0 -0 0 0 0 0 0 0 0 0 0 -0 -0 -0 -0 -0 -0 -0 -0 0 0 1 0 0 0 0 0 0 0 0 0 0 0 0 0 0 0 0 0
1 1 1 0 -0 -0 -0 -0 0 0 0 0 0 0 0 -0 -0 -0 -0 -0 -0 -0 -0 -0 0 0 0 0 0 0 0 0 0 0 0 0 0 0 0 0 0 0 0
1 0 1 0 0 0 0 -0 -0 -0 -0 0 0 0 0 -0 -0 -0 0 -0 -0 -0 -0 -1 -0 0 -0 0 0 0 0 0 0 0 0 0 0 0 0 0 0 0 0
0 1 1 1 1 1 0 0 0 0 -0 -0 0 0 0 -0 0 0 1 -0 -0 -0 -1 -1 0 0 -0 0 0 0 0 0 0 0 0 0 0 0 0 0 0 0 0
0 1 1 1 1 1 1 1 1 0 0 0 0 0 0 0 0 1 1 0 0 -0 -0 -0 0 0 0 0 0 0 0 0 0 0 0 0 0 0 0 0 0 0 0
0 0 0 1 2 4 3 3 3 2 1 0 0 0 0 1 1 1 0 0 0 0 0 0 0 0 -0 0 0 0 0 0 0 0 0 0 0 -0 0 0 0 0 0
0 0 0 0 0 2 4 6 5 2 1 1 1 0 1 1 1 1 1 1 1 0 1 1 1 -0 0 0 0 -0 0 0 0 0 0 0 0 0 0 0 0 0 0
0 0 0 0 0 0 0 1 4 3 1 1 1 1 1 1 1 1 1 0 0 1 1 1 1 0 -0 -0 0 0 0 0 0 0 0 0 0 0 0 0 0 0 0
Wind_Speed_500mb
49 46 47 46 42 38 39 41 48 51 51 45 32 23 19 20 22 19 19 14 7 8 11 9 12 13 13 18 20 23 22 40 22 50 34 31 20 18 25 20 21 23 24
49 51 50 49 47 44 42 42 48 54 55 42 34 24 22 20 21 22 22 21 13 10 11 14 14 18 22 28 20 20 38 26 28 36 31 26 25 10 33 24 23 26 23
54 55 57 55 50 50 48 45 48 53 54 41 38 31 23 25 23 24 24 22 20 18 14 15 16 23 29 24 24 27 28 33 31 32 24 19 26 35 22 26 17 27 17
52 55 60 60 58 53 49 48 49 49 53 53 38 37 29 28 25 25 22 24 23 22 20 19 21 26 23 29 30 33 32 30 32 29 32 28 30 25 31 28 23 20 13
56 60 64 64 61 55 54 51 51 53 50 52 46 39 37 30 26 25 27 29 29 30 26 24 27 29 23 25 33 33 34 32 31 34 36 28 30 31 20 36 28 23 9
59 60 60 61 61 60 57 53 54 61 57 53 49 48 39 37 30 30 28 24 23 23 25 27 31 32 32 29 33 35 38 41 35 37 36 31 28 28 27 29 32 25 12
62 61 62 65 64 64 63 59 57 64 64 59 53 48 45 43 40 38 30 30 25 25 26 30 31 27 28 41 40 42 44 38 40 48 34 26 18 25 26 31 28 20 14
61 63 65 65 67 68 69 66 62 67 66 64 58 50 45 41 39 39 34 29 29 27 28 31 33 32 40 44 39 31 32 36 41 39 33 15 20 21 24 22 22 21 15
65 69 69 68 64 66 69 70 67 68 69 66 59 54 50 46 40 39 37 34 38 30 33 33 32 36 39 39 30 30 34 38 33 34 28 21 16 15 11 12 14 17 29
57 66 67 68 67 66 66 66 66 66 70 65 61 57 53 49 46 47 42 37 35 37 36 38 38 39 39 36 32 31 29 34 29 27 24 18 12 8 8 9 18 17 20
52 59 64 66 69 67 64 63 65 62 64 66 62 60 58 56 53 53 48 40 38 35 35 34 34 34 36 32 30 25 22 25 22 21 19 14 12 9 9 12 16 16 15
47 55 59 60 62 62 65 66 62 63 62 66 64 59 53 55 58 57 53 46 41 37 31 33 28 26 27 28 22 17 21 21 16 13 14 14 10 12 14 16 15 17 17
40 52 57 60 62 64 62 64 66 65 62 69 66 61 56 53 51 49 49 50 46 40 32 34 27 26 25 20 15 17 17 13 11 11 12 11 10 12 15 13 16 16 17
32 47 55 61 63 66 68 64 63 63 63 67 68 63 58 54 45 43 45 48 48 40 37 31 29 25 22 13 14 15 12 8 10 10 13 11 11 14 17 18 21 20 19
23 41 50 60 64 62 67 60 57 59 61 73 75 65 59 56 54 52 42 39 37 34 33 29 27 21 14 11 10 11 4 5 8 14 12 10 13 17 22 16 20 19 20
10 27 37 43 51 62 69 63 61 64 67 71 71 72 63 53 49 49 51 48 37 34 30 30 21 15 6 17 11 5 4 6 8 11 12 12 16 19 21 23 24 29 25
11 11 26 37 41 48 53 57 61 63 68 68 67 69 69 62 56 54 54 49 38 35 31 28 18 10 17 10 6 4 7 7 10 12 12 18 15 18 20 23 26 29 30
22 14 14 29 37 39 43 50 55 63 66 67 65 65 68 68 60 55 53 46 40 39 34 26 19 17 11 8 4 7 9 9 13 13 13 10 15 18 18 16 20 20 26
22 21 20 26 33 41 45 53 48 54 59 64 65 65 64 63 60 57 52 47 42 40 33 25 17 18 14 10 11 13 10 12 14 13 13 11 15 18 18 14 19 17 21
28 28 22 23 36 40 45 50 51 49 51 56 67 65 62 60 58 53 50 46 44 40 26 23 25 19 17 13 12 15 11 15 15 14 14 13 15 16 16 15 14 16 18
27 20 8 7 26 39 44 46 45 49 49 49 54 63 61 58 51 48 50 46 44 32 30 30 25 23 22 15 19 19 14 14 18 16 17 17 17 16 15 20 15 20 21
22 20 13 6 13 28 35 38 40 44 47 50 55 60 58 52 51 52 49 46 42 36 35 33 31 31 28 21 23 26 19 14 19 22 22 20 20 18 16 19 19 24 26
33 26 19 13 15 14 19 28 33 39 48 52 56 58 54 54 53 52 48 44 42 36 39 39 40 39 36 31 31 30 27 21 21 22 19 22 21 20 16 18 20 26 14
37 27 26 30 22 20 13 12 29 39 45 52 56 56 55 54 51 47 44 36 38 36 37 43 45 43 41 41 39 42 38 30 26 24 25 24 23 23 16 18 19 14 13
39 37 32 28 29 19 24 22 14 34 41 48 54 55 52 51 49 40 35 34 35 36 36 38 42 45 45 41 39 43 41 38 32 31 31 29 25 23 18 15 12 15 15
46 42 41 32 35 22 25 21 24 26 31 31 40 40 37 45 38 43 46 45 37 36 33 30 27 36 35 28 36 37 36 34 31 32 30 28 27 24 22 20 16 13 16
Wind_Direction_500mb
191 192 191 188 188 190 188 190 189 187 184 187 191 202 204 205 213 218 220 226 241 277 272 294 312 331 323 306 323 348 329 15 316 324 326 333 315 301 325 329 324 320 324
192 192 193 192 191 194 193 193 194 193 191 193 196 203 207 214 210 223 229 226 244 275 289 277 291 301 304 305 334 338 306 336 334 318 318 319 331 324 321 319 324 318 330
193 193 197 197 194 198 199 198 195 196 199 194 201 213 213 213 225 228 233 243 251 260 283 295 289 306 309 304 306 312 317 332 339 322 304 306 309 314 317 305 307 323 337
199 196 198 198 198 200 203 202 201 201 206 208 207 213 213 220 225 230 236 234 248 255 264 275 287 299 292 296 315 327 331 325 322 323 305 289 281 294 306 327 315 336 342
200 200 200 201 200 199 204 205 206 207 209 214 210 220 218 227 228 231 238 247 243 255 259 263 268 288 300 291 303 314 317 321 314 325 312 295 284 290 284 310 318 320 315
202 203 203 205 205 205 205 206 209 211 214 218 217 223 222 221 228 237 240 253 254 259 267 259 268 280 288 300 302 304 314 316 315 321 311 300 284 298 304 310 311 314 302
201 201 200 202 204 205 206 207 210 216 216 219 221 225 229 235 239 242 248 246 252 257 263 269 271 277 284 293 297 304 311 311 315 321 314 306 289 289 312 317 312 317 320
204 205 204 203 204 204 205 205 209 215 218 219 220 224 229 234 239 244 243 247 253 258 260 265 276 282 289 293 298 307 301 313 315 318 322 313 297 301 318 317 314 329 307
206 206 205 205 203 204 206 206 206 213 218 219 220 222 227 230 234 238 247 252 256 258 274 278 280 288 291 294 298 306 300 310 315 326 325 326 310 330 337 336 340 341 334
204 207 206 205 205 204 205 206 208 211 215 218 220 222 226 230 235 243 247 250 253 264 266 271 286 289 293 296 297 298 306 306 325 328 336 338 10 42 14 5 354 339 336
204 202 201 204 204 205 204 205 207 210 213 218 223 226 227 232 237 243 247 251 259 266 273 282 286 292 294 302 302 304 309 319 331 336 356 26 53 44 30 13 5 5 16
204 197 196 197 198 200 203 206 205 208 212 214 218 222 225 232 238 243 249 252 256 263 273 278 288 289 298 303 303 306 309 329 340 352 45 70 44 33 25 27 27 39 48
209 195 190 191 192 195 200 202 205 207 210 212 214 218 221 223 227 235 245 251 254 260 266 274 283 288 300 297 300 310 323 339 356 60 76 77 50 41 33 63 57 45 47
204 196 190 190 191 193 198 200 203 205 205 211 214 215 220 223 226 236 240 246 250 254 258 269 275 288 294 286 286 311 328 360 77 110 94 85 50 44 52 51 47 50 39
188 194 195 191 191 192 196 198 200 199 201 209 211 211 213 220 224 228 233 241 244 247 254 262 272 283 280 279 292 307 310 92 86 115 93 83 62 63 72 67 58 53 49
210 205 205 201 198 195 198 199 199 203 204 210 211 213 215 217 220 225 230 235 241 244 249 258 266 258 254 261 299 304 178 113 103 112 97 83 70 69 64 56 53 54 57
358 230 214 210 205 203 200 200 200 201 204 208 210 211 214 216 218 224 233 235 235 240 245 254 254 242 238 257 241 181 160 121 128 113 96 106 82 78 64 60 53 55 53
338 327 247 222 213 205 204 201 204 201 201 203 204 207 210 212 218 223 228 230 230 237 241 246 241 219 219 225 218 180 160 137 138 124 114 100 92 92 86 83 69 65 56
322 322 284 238 215 209 205 202 200 201 199 200 200 202 205 207 212 217 222 225 226 232 235 233 208 228 218 212 189 175 184 162 149 139 127 106 105 96 88 86 75 71 57
349 316 292 241 212 203 203 204 199 198 200 199 197 198 199 203 208 215 219 218 220 225 215 216 215 205 209 202 187 178 201 175 163 154 140 125 116 105 95 94 79 78 68
341 322 328 185 191 194 195 196 194 199 198 195 196 196 197 202 206 209 212 211 212 206 199 204 217 203 198 198 184 182 189 180 161 159 150 146 133 118 105 98 83 75 69
339 15 18 55 143 174 186 191 195 196 193 190 193 194 195 197 201 204 205 204 204 205 202 216 208 200 187 188 184 184 190 179 164 155 158 157 146 138 121 99 77 76 71
20 37 36 65 82 135 170 180 185 187 185 186 188 189 190 193 198 198 199 201 205 204 217 214 211 200 190 188 188 186 187 187 172 167 175 162 153 146 129 111 93 74 81
41 49 66 81 84 100 110 156 182 179 180 183 185 185 185 191 191 195 203 195 206 202 212 213 212 202 199 194 192 192 193 192 186 178 172 169 161 147 152 122 89 105 99
55 61 70 77 77 114 138 139 159 177 180 181 183 184 188 193 196 191 201 204 210 213 215 222 219 209 211 212 205 204 201 194 193 185 176 172 168 163 155 149 136 109 96
51 61 66 89 84 97 123 135 169 176 178 187 190 189 190 189 193 202 206 214 213 220 220 221 219 209 218 209 204 205 208 201 185 185 172 173 172 171 171 163 151 141 120
Wind_Speed_850mb
49 46 47 46 42 38 39 41 48 51 51 45 32 23 19 20 22 19 19 14 7 8 11 9 12 13 13 18 20 23 22 40 22 50 34 31 20 18 25 20 21 23 24
49 51 50 49 47 44 42 42 48 54 55 42 34 24 22 20 21 22 22 21 13 10 11 14 14 18 22 28 20 20 38 26 28 36 31 26 25 10 33 24 23 26 23
54 55 57 55 50 50 48 45 48 53 54 41 38 31 23 25 23 24 24 22 20 18 14 15 16 23 29 24 24 27 28 33 31 32 24 19 26 35 22 26 17 27 17
52 55 60 60 58 53 49 48 49 49 53 53 38 37 29 28 25 25 22 24 23 22 20 19 21 26 23 29 30 33 32 30 32 29 32 28 30 25 31 28 23 20 13
56 60 64 64 61 55 54 51 51 53 50 52 46 39 37 30 26 25 27 29 29 30 26 24 27 29 23 25 33 33 34 32 31 34 36 28 30 31 20 36 28 23 9
59 60 60 61 61 60 57 53 54 61 57 53 49 48 39 37 30 30 28 24 23 23 25 27 31 32 32 29 33 35 38 41 35 37 36 31 28 28 27 29 32 25 12
62 61 62 65 64 64 63 59 57 64 64 59 53 48 45 43 40 38 30 30 25 25 26 30 31 27 28 41 40 42 44 38 40 48 34 26 18 25 26 31 28 20 14
61 63 65 65 67 68 69 66 62 67 66 64 58 50 45 41 39 39 34 29 29 27 28 31 33 32 40 44 39 31 32 36 41 39 33 15 20 21 24 22 22 21 15
65 69 69 68 64 66 69 70 67 68 69 66 59 54 50 46 40 39 37 34 38 30 33 33 32 36 39 39 30 30 34 38 33 34 28 21 16 15 11 12 14 17 29
57 66 67 68 67 66 66 66 66 66 70 65 61 57 53 49 46 47 42 37 35 37 36 38 38 39 39 36 32 31 29 34 29 27 24 18 12 8 8 9 18 17 20
52 59 64 66 69 67 64 63 65 62 64 66 62 60 58 56 53 53 48 40 38 35 35 34 34 34 36 32 30 25 22 25 22 21 19 14 12 9 9 12 16 16 15
47 55 59 60 62 62 65 66 62 63 62 66 64 59 53 55 58 57 53 46 41 37 31 33 28 26 27 28 22 17 21 21 16 13 14 14 10 12 14 16 15 17 17
40 52 57 60 62 64 62 64 66 65 62 69 66 61 56 53 51 49 49 50 46 40 32 34 27 26 25 20 15 17 17 13 11 11 12 11 10 12 15 13 16 16 17
32 47 55 61 63 66 68 64 63 63 63 67 68 63 58 54 45 43 45 48 48 40 37 31 29 25 22 13 14 15 12 8 10 10 13 11 11 14 17 18 21 20 19
23 41 50 60 64 62 67 60 57 59 61 73 75 65 59 56 54 52 42 39 37 34 33 29 27 21 14 11 10 11 4 5 8 14 12 10 13 17 22 16 20 19 20
10 27 37 43 51 62 69 63 61 64 67 71 71 72 63 53 49 49 51 48 37 34 30 30 21 15 6 17 11 5 4 6 8 11 12 12 16 19 21 23 24 29 25
11 11 26 37 41 48 53 57 61 63 68 68 67 69 69 62 56 54 54 49 38 35 31 28 18 10 17 10 6 4 7 7 10 12 12 18 15 18 20 23 26 29 30
22 14 14 29 37 39 43 50 55 63 66 67 65 65 68 68 60 55 53 46 40 39 34 26 19 17 11 8 4 7 9 9 13 13 13 10 15 18 18 16 20 20 26
22 21 20 26 33 41 45 53 48 54 59 64 65 65 64 63 60 57 52 47 42 40 33 25 17 18 14 10 11 13 10 12 14 13 13 11 15 18 18 14 19 17 21
28 28 22 23 36 40 45 50 51 49 51 56 67 65 62 60 58 53 50 46 44 40 26 23 25 19 17 13 12 15 11 15 15 14 14 13 15 16 16 15 14 16 18
27 20 8 7 26 39 44 46 45 49 49 49 54 63 61 58 51 48 50 46 44 32 30 30 25 23 22 15 19 19 14 14 18 16 17 17 17 16 15 20 15 20 21
22 20 13 6 13 28 35 38 40 44 47 50 55 60 58 52 51 52 49 46 42 36 35 33 31 31 28 21 23 26 19 14 19 22 22 20 20 18 16 19 19 24 26
33 26 19 13 15 14 19 28 33 39 48 52 56 58 54 54 53 52 48 44 42 36 39 39 40 39 36 31 31 30 27 21 21 22 19 22 21 20 16 18 20 26 14
37 27 26 30 22 20 13 12 29 39 45 52 56 56 55 54 51 47 44 36 38 36 37 43 45 43 41 41 39 42 38 30 26 24 25 24 23 23 16 18 19 14 13
39 37 32 28 29 19 24 22 14 34 41 48 54 55 52 51 49 40 35 34 35 36 36 38 42 45 45 41 39 43 41 38 32 31 31 29 25 23 18 15 12 15 15
46 42 41 32 35 22 25 21 24 26 31 31 40 40 37 45 38 43 46 45 37 36 33 30 27 36 35 28 36 37 36 34 31 32 30 28 27 24 22 20 16 13 16
Wind_Direction_850mb
191 192 191 188 188 190 188 190 189 187 184 187 191 202 204 205 213 218 220 226 241 277 272 294 312 331 323 306 323 348 329 15 316 324 326 333 315 301 325 329 324 320 324
192 192 193 192 191 194 193 193 194 193 191 193 196 203 207 214 210 223 229 226 244 275 289 277 291 301 304 305 334 338 306 336 334 318 318 319 331 324 321 319 324 318 330
193 193 197 197 194 198 199 198 195 196 199 194 201 213 213 213 225 228 233 243 251 260 283 295 289 306 309 304 306 312 317 332 339 322 304 306 309 314 317 305 307 323 337
199 196 198 198 198 200 203 202 201 201 206 208 207 213 213 220 225 230 236 234 248 255 264 275 287 299 292 296 315 327 331 325 322 323 305 289 281 294 306 327 315 336 342
200 200 200 201 200 199 204 205 206 207 209 214 210 220 218 227 228 231 238 247 243 255 259 263 268 288 300 291 303 314 317 321 314 325 312 295 284 290 284 310 318 320 315
202 203 203 205 205 205 205 206 209 211 214 218 217 223 222 221 228 237 240 253 254 259 267 259 268 280 288 300 302 304 314 316 315 321 311 300 284 298 304 310 311 314 302
201 201 200 202 204 205 206 207 210 216 216 219 221 225 229 235 239 242 248 246 252 257 263 269 271 277 284 293 297 304 311 311 315 321 314 306 289 289 312 317 312 317 320
204 205 204 203 204 204 205 205 209 215 218 219 220 224 229 234 239 244 243 247 253 258 260 265 276 282 289 293 298 307 301 313 315 318 322 313 297 301 318 317 314 329 307
206 206 205 205 203 204 206 206 206 213 218 219 220 222 227 230 234 238 247 252 256 258 274 278 280 288 291 294 298 306 300 310 315 326 325 326 310 330 337 336 340 341 334
204 207 206 205 205 204 205 206 208 211 215 218 220 222 226 230 235 243 247 250 253 264 266 271 286 289 293 296 297 298 306 306 325 328 336 338 10 42 14 5 354 339 336
204 202 201 204 204 205 204 205 207 210 213 218 223 226 227 232 237 243 247 251 259 266 273 282 286 292 294 302 302 304 309 319 331 336 356 26 53 44 30 13 5 5 16
204 197 196 197 198 200 203 206 205 208 212 214 218 222 225 232 238 243 249 252 256 263 273 278 288 289 298 303 303 306 309 329 340 352 45 70 44 33 25 27 27 39 48
209 195 190 191 192 195 200 202 205 207 210 212 214 218 221 223 227 235 245 251 254 260 266 274 283 288 300 297 300 310 323 339 356 60 76 77 50 41 33 63 57 45 47
204 196 190 190 191 193 198 200 203 205 205 211 214 215 220 223 226 236 240 246 250 254 258 269 275 288 294 286 286 311 328 360 77 110 94 85 50 44 52 51 47 50 39
188 194 195 191 191 192 196 198 200 199 201 209 211 211 213 220 224 228 233 241 244 247 254 262 272 283 280 279 292 307 310 92 86 115 93 83 62 63 72 67 58 53 49
210 205 205 201 198 195 198 199 199 203 204 210 211 213 215 217 220 225 230 235 241 244 249 258 266 258 254 261 299 304 178 113 103 112 97 83 70 69 64 56 53 54 57
358 230 214 210 205 203 200 200 200 201 204 208 210 211 214 216 218 224 233 235 235 240 245 254 254 242 238 257 241 181 160 121 128 113 96 106 82 78 64 60 53 55 53
338 327 247 222 213 205 204 201 204 201 201 203 204 207 210 212 218 223 228 230 230 237 241 246 241 219 219 225 218 180 160 137 138 124 114 100 92 92 86 83 69 65 56
322 322 284 238 215 209 205 202 200 201 199 200 200 202 205 207 212 217 222 225 226 232 235 233 208 228 218 212 189 175 184 162 149 139 127 106 105 96 88 86 75 71 57
349 316 292 241 212 203 203 204 199 198 200 199 197 198 199 203 208 215 219 218 220 225 215 216 215 205 209 202 187 178 201 175 163 154 140 125 116 105 95 94 79 78 68
341 322 328 185 191 194 195 196 194 199 198 195 196 196 197 202 206 209 212 211 212 206 199 204 217 203 198 198 184 182 189 180 161 159 150 146 133 118 105 98 83 75 69
339 15 18 55 143 174 186 191 195 196 193 190 193 194 195 197 201 204 205 204 204 205 202 216 208 200 187 188 184 184 190 179 164 155 158 157 146 138 121 99 77 76 71
20 37 36 65 82 135 170 180 185 187 185 186 188 189 190 193 198 198 199 201 205 204 217 214 211 200 190 188 188 186 187 187 172 167 175 162 153 146 129 111 93 74 81
41 49 66 81 84 100 110 156 182 179 180 183 185 185 185 191 191 195 203 195 206 202 212 213 212 202 199 194 192 192 193 192 186 178 172 169 161 147 152 122 89 105 99
55 61 70 77 77 114 138 139 159 177 180 181 183 184 188 193 196 191 201 204 210 213 215 222 219 209 211 212 205 204 201 194 193 185 176 172 168 163 155 149 136 109 96
51 61 66 89 84 97 123 135 169 176 178 187 190 189 190 189 193 202 206 214 213 220 220 221 219 209 218 209 204 205 208 201 185 185 172 173 172 171 171 163 151 141 120